Location: ??????
(42.0089°N, 44.3281°E)
Time: 19:22:57
(UTC+00:00)

CZ-4 R/B - Pass Details

Date: 24 October 2021
Orbit: 580 x 588 km, 97.7° (Epoch: 02 December)

Event Time Altitude Azimuth Distance (km) Brightness Sun altitude
Rises 15:11:39 0° 159° (SSE) 2,798 7.8 -12.6°
Reaches altitude 10° 15:13:49 10° 157° (SSE) 1,901 6.9 -13.0°
Maximum altitude 15:17:54 67° 75° (ENE) 636 4.4 -13.7°
Drops below altitude 10° 15:22:01 10° 353° (N) 1,911 7.1 -14.5°
Sets 15:24:11 0° 351° (N) 2,814 8.0 -14.9°
